Location: Gandikunta
(16.3784°N, 80.8378°E)
Time: 21:26:14
(UTC+00:00)

Cosmos 2026 Rocket - Pass Details

Date: 19 May 2025
Orbit: 937 x 1000 km, 82.9° (Epoch: 18 June)

Event Time Altitude Azimuth Distance (km) Brightness Sun altitude
Rises 23:32:22 0° 195° (SSW) 3,676 6.6 -8.1°
Reaches altitude 10° 23:34:56 10° 199° (SSW) 2,737 6.0 -7.5°
Maximum altitude 23:41:02 53° 275° (W) 1,207 4.2 -6.1°
Drops below altitude 10° 23:47:12 10° 351° (N) 2,764 6.6 -4.8°
Sets 23:49:49 0° 356° (N) 3,716 7.3 -4.2°
